This is the latest recevied weather packets stored in our database for station/object DC1MPP-9. If no packets are shown the sender has not sent any weather packets the latest 10 day(s).
| Time | Temp. | Humidity | Pressure | Rain* | Wind** | Luminosity | Snow |
|---|---|---|---|---|---|---|---|
| 1787480654 | 25.56° C | 48% | 965 hPa | - | - | - | - |
| 1787480413 | 25.56° C | 46% | 965 hPa | - | - | - | - |
| 1787480172 | 25.56° C | 48% | 965 hPa | - | - | - | - |
| 1787479931 | 25° C | 49% | 965 hPa | - | - | - | - |
| 1787479690 | 25° C | 48% | 965 hPa | - | - | - | - |
| 1787479449 | 24.44° C | 52% | 965 hPa | - | - | - | - |
| 1787479208 | 24.44° C | 48% | 965 hPa | - | - | - | - |
| 1787478967 | 23.89° C | 47% | 965 hPa | - | - | - | - |
| 1787478726 | 23.89° C | 57% | 965 hPa | - | - | - | - |
| 1787478485 | 23.33° C | 50% | 965 hPa | - | - | - | - |
| 1787478244 | 23.89° C | 53% | 965 hPa | - | - | - | - |
| 1787478003 | 23.33° C | 55% | 965 hPa | - | - | - | - |
| 1787477762 | 23.89° C | 55% | 965 hPa | - | - | - | - |
| 1787477279 | 23.33° C | 54% | 965 hPa | - | - | - | - |
| 1787477038 | 23.33° C | 57% | 965 hPa | - | - | - | - |
| 1787476797 | 22.78° C | 61% | 965 hPa | - | - | - | - |
| 1787476556 | 22.78° C | 55% | 965 hPa | - | - | - | - |
| 1787476074 | 22.78° C | 65% | 965 hPa | - | - | - | - |
| 1787475833 | 22.78° C | 58% | 965 hPa | - | - | - | - |
| 1787475592 | 22.78° C | 64% | 965 hPa | - | - | - | - |
| 1787475351 | 21.67° C | 69% | 966 hPa | - | - | - | - |
| 1787475110 | 21.11° C | 61% | 965 hPa | - | - | - | - |
| 1787474628 | 21.11° C | 65% | 965 hPa | - | - | - | - |
| 1787474387 | 21.11° C | 72% | 966 hPa | - | - | - | - |
| 1787474146 | 21.11° C | 66% | 966 hPa | - | - | - | - |
* Rain since midnight (hover to see other rain measurements)
** Current wind speed in m/s (hover to see current wind gust speed)